When you browse on this site, cookies collect data to enhance your experience and personalize the content and advertising you see.
Visit our Privacy Policy to learn more. By continuing to use the site, you agree to this use of cookies and data.
  • In Hungary
  • List of Countries
  • For 7 days
  • Water Temperature
  • Weather Map
  • News
  • Weather Widgets
  • user-avatar
    Login

    Hourly Weather Mordovo-Dobrino

    Today, 15 October, Tuesday

    Time Temperature Precipitation Wind Pressure Humidity
    00:00 +5°C° 0 mm 4 mps 745 mmHg 90%
    01:00 +5°C° 0 mm 4 mps 745 mmHg 90%
    02:00 +5°C° 0 mm 4 mps 744 mmHg 91%
    03:00 +5°C° 0 mm 4 mps 744 mmHg 92%
    04:00 +5°C° 0 mm 4 mps 743 mmHg 92%
    05:00 +5°C° 1.1 mm 4 mps 743 mmHg 94%
    06:00 +5°C° 1.1 mm 4 mps 742 mmHg 95%
    07:00 +5°C° 1.1 mm 4 mps 741 mmHg 97%
    08:00 +7°C° 1.4 mm 3 mps 740 mmHg 97%
    09:00 +7°C° 1.4 mm 3 mps 739 mmHg 98%
    10:00 +8°C° 1.4 mm 2 mps 739 mmHg 98%
    11:00 +9°C° 1 mm 3 mps 738 mmHg 97%
    12:00 +10°C° 1 mm 3 mps 738 mmHg 97%
    13:00 +11°C° 1 mm 4 mps 738 mmHg 96%
    14:00 +11°C° 0.8 mm 4 mps 738 mmHg 95%
    15:00 +11°C° 0.8 mm 3 mps 738 mmHg 95%
    16:00 +11°C° 0.8 mm 3 mps 739 mmHg 94%
    17:00 +10°C° 0.1 mm 4 mps 739 mmHg 93%
    18:00 +8°C° 0.1 mm 4 mps 740 mmHg 93%
    19:00 +7°C° 0.1 mm 5 mps 740 mmHg 92%
    20:00 +7°C° 0 mm 4 mps 741 mmHg 91%
    21:00 +6°C° 0 mm 4 mps 742 mmHg 89%
    22:00 +6°C° 0 mm 4 mps 743 mmHg 88%
    23:00 +5°C° 0 mm 5 mps 743 mmHg 88%

    Tomorrow, 16 October, Wednesday

    Time Temperature Precipitation Wind Pressure Humidity
    00:00 +5°C° 0 mm 5 mps 744 mmHg 88%
    01:00 +3°C° 0 mm 5 mps 745 mmHg 88%
    02:00 +2°C° 0 mm 6 mps 745 mmHg 85%
    03:00 +2°C° 0 mm 6 mps 746 mmHg 81%
    04:00 +1°C° 0 mm 6 mps 747 mmHg 77%
    05:00 +1°C° 0 mm 6 mps 747 mmHg 79%
    06:00 +1°C° 0 mm 5 mps 748 mmHg 81%
    07:00 0°C° 0 mm 5 mps 748 mmHg 83%
    08:00 +1°C° 0 mm 5 mps 749 mmHg 80%
    09:00 +1°C° 0 mm 6 mps 749 mmHg 78%
    10:00 +2°C° 0 mm 6 mps 750 mmHg 75%
    11:00 +2°C° 0 mm 6 mps 751 mmHg 73%
    12:00 +2°C° 0 mm 6 mps 751 mmHg 72%
    13:00 +2°C° 0 mm 6 mps 751 mmHg 70%
    14:00 +2°C° 0 mm 6 mps 752 mmHg 70%
    15:00 +2°C° 0 mm 6 mps 752 mmHg 70%
    16:00 +2°C° 0 mm 5 mps 752 mmHg 70%
    17:00 +3°C° 0 mm 4 mps 753 mmHg 74%
    18:00 +2°C° 0 mm 3 mps 753 mmHg 78%
    19:00 +2°C° 0 mm 2 mps 754 mmHg 83%
    20:00 +2°C° 0 mm 2 mps 754 mmHg 84%
    21:00 +1°C° 0 mm 2 mps 754 mmHg 86%
    22:00 +1°C° 0 mm 2 mps 754 mmHg 88%
    23:00 +2°C° 0 mm 1 mps 755 mmHg 88%

    Day after tomorrow, 17 October, Thursday

    Time Temperature Precipitation Wind Pressure Humidity
    00:00 +2°C° 0 mm 1 mps 755 mmHg 89%
    01:00 +1°C° 0 mm 1 mps 755 mmHg 90%
    02:00 +1°C° 0 mm 1 mps 755 mmHg 90%
    03:00 +1°C° 0 mm 1 mps 755 mmHg 90%
    04:00 0°C° 0 mm 0 mps 755 mmHg 90%
    05:00 +1°C° 0 mm 1 mps 755 mmHg 90%
    06:00 +2°C° 0 mm 1 mps 755 mmHg 89%
    07:00 +2°C° 0 mm 1 mps 756 mmHg 88%
    08:00 +1°C° 0 mm 2 mps 755 mmHg 86%
    09:00 +1°C° 0 mm 3 mps 755 mmHg 83%
    10:00 +1°C° 0 mm 4 mps 755 mmHg 81%
    11:00 +1°C° 0 mm 5 mps 754 mmHg 78%
    12:00 +2°C° 0 mm 5 mps 754 mmHg 76%
    13:00 +2°C° 0 mm 6 mps 753 mmHg 74%
    14:00 +2°C° 0 mm 6 mps 753 mmHg 75%
    15:00 +2°C° 0 mm 6 mps 752 mmHg 77%
    16:00 +2°C° 0 mm 6 mps 752 mmHg 78%
    17:00 +2°C° 0.1 mm 6 mps 751 mmHg 77%
    18:00 +2°C° 0.1 mm 7 mps 750 mmHg 76%
    19:00 +2°C° 0.1 mm 8 mps 750 mmHg 75%
    20:00 +2°C° 0 mm 8 mps 749 mmHg 75%
    21:00 +1°C° 0 mm 8 mps 749 mmHg 74%
    22:00 +1°C° 0 mm 8 mps 748 mmHg 74%
    23:00 +1°C° 0 mm 8 mps 748 mmHg 73%

    18 October, Friday

    Time Temperature Precipitation Wind Pressure Humidity
    00:00 +1°C° 0 mm 8 mps 747 mmHg 73%
    01:00 +1°C° 0 mm 8 mps 746 mmHg 72%
    02:00 +2°C° 0.1 mm 7 mps 746 mmHg 73%
    03:00 +2°C° 0.1 mm 7 mps 746 mmHg 73%
    04:00 +3°C° 0.1 mm 7 mps 745 mmHg 74%
    05:00 +3°C° 0.3 mm 7 mps 745 mmHg 77%
    06:00 +3°C° 0.3 mm 6 mps 745 mmHg 80%
    07:00 +3°C° 0.3 mm 6 mps 744 mmHg 83%
    08:00 +3°C° 0.2 mm 6 mps 745 mmHg 87%
    09:00 +3°C° 0.2 mm 5 mps 745 mmHg 90%
    10:00 +5°C° 0.2 mm 5 mps 745 mmHg 94%
    11:00 +3°C° 0.1 mm 5 mps 746 mmHg 88%
    12:00 +4°C° 0.1 mm 4 mps 746 mmHg 81%
    13:00 +4°C° 0.1 mm 4 mps 747 mmHg 75%
    14:00 +2°C° 0 mm 5 mps 748 mmHg 74%
    15:00 +2°C° 0 mm 5 mps 748 mmHg 73%
    16:00 +2°C° 0 mm 5 mps 749 mmHg 71%
    17:00 +1°C° 0 mm 5 mps 749 mmHg 74%
    18:00 0°C° 0 mm 5 mps 750 mmHg 76%
    19:00 0°C° 0 mm 5 mps 750 mmHg 79%
    20:00 -1°C° 0 mm 5 mps 751 mmHg 79%
    21:00 -1°C° 0 mm 5 mps 751 mmHg 78%
    22:00 -1°C° 0 mm 4 mps 752 mmHg 78%
    23:00 -1°C° 0 mm 4 mps 752 mmHg 78%

    19 October, Saturday

    Time Temperature Precipitation Wind Pressure Humidity
    00:00 -1°C° 0 mm 4 mps 753 mmHg 77%
    01:00 -1°C° 0 mm 4 mps 753 mmHg 77%
    02:00 -2°C° 0 mm 4 mps 753 mmHg 77%
    03:00 -2°C° 0 mm 4 mps 754 mmHg 78%
    04:00 -1°C° 0 mm 3 mps 754 mmHg 79%
    05:00 -3°C° 0 mm 4 mps 754 mmHg 80%
    06:00 -3°C° 0 mm 4 mps 755 mmHg 81%
    07:00 -3°C° 0 mm 4 mps 755 mmHg 82%
    08:00 -2°C° 0 mm 4 mps 756 mmHg 78%
    09:00 -2°C° 0 mm 4 mps 756 mmHg 74%
    10:00 -1°C° 0 mm 4 mps 756 mmHg 70%
    11:00 0°C° 0 mm 4 mps 757 mmHg 66%
    12:00 +2°C° 0 mm 3 mps 757 mmHg 61%
    13:00 +3°C° 0 mm 3 mps 757 mmHg 57%
    14:00 +3°C° 0 mm 3 mps 757 mmHg 58%
    15:00 +3°C° 0 mm 3 mps 757 mmHg 60%
    16:00 +4°C° 0 mm 2 mps 757 mmHg 61%
    17:00 +3°C° 0 mm 2 mps 757 mmHg 65%
    18:00 +2°C° 0 mm 2 mps 757 mmHg 70%
    19:00 +1°C° 0 mm 2 mps 757 mmHg 75%
    20:00 -1°C° 0 mm 2 mps 757 mmHg 76%
    21:00 -1°C° 0 mm 2 mps 757 mmHg 77%
    22:00 -1°C° 0 mm 2 mps 757 mmHg 78%
    23:00 -1°C° 0 mm 2 mps 757 mmHg 78%

    20 October, Sunday

    Time Temperature Precipitation Wind Pressure Humidity
    00:00 -1°C° 0 mm 2 mps 757 mmHg 78%
    01:00 -1°C° 0 mm 2 mps 757 mmHg 78%
    02:00 -1°C° 0 mm 2 mps 757 mmHg 78%
    03:00 -1°C° 0 mm 2 mps 757 mmHg 78%
    04:00 -1°C° 0 mm 2 mps 757 mmHg 77%
    05:00 -1°C° 0 mm 2 mps 757 mmHg 77%
    06:00 -1°C° 0 mm 3 mps 757 mmHg 77%
    07:00 -1°C° 0 mm 3 mps 757 mmHg 77%
    08:00 -1°C° 0 mm 3 mps 757 mmHg 75%
    09:00 0°C° 0 mm 3 mps 757 mmHg 72%
    10:00 0°C° 0 mm 4 mps 758 mmHg 69%
    11:00 +1°C° 0 mm 4 mps 758 mmHg 67%
    12:00 +1°C° 0 mm 4 mps 758 mmHg 64%
    13:00 +3°C° 0 mm 3 mps 757 mmHg 62%
    14:00 +3°C° 0 mm 3 mps 757 mmHg 64%
    15:00 +3°C° 0 mm 3 mps 757 mmHg 66%
    16:00 +4°C° 0 mm 2 mps 757 mmHg 68%
    17:00 +3°C° 0 mm 2 mps 757 mmHg 71%
    18:00 +3°C° 0 mm 2 mps 757 mmHg 73%
    19:00 +2°C° 0 mm 2 mps 757 mmHg 76%
    20:00 +2°C° 0 mm 2 mps 757 mmHg 76%
    21:00 +3°C° 0 mm 1 mps 757 mmHg 76%
    22:00 +3°C° 0 mm 1 mps 757 mmHg 77%
    23:00 +3°C° 0 mm 1 mps 757 mmHg 76%
    Show more